DIW YSSY-YMML

Flight info

Callsign DIW
Flight time N/A
Altitude 36000
Route YSSY/34L 3412S15105E WOL LEECE Q29 ML
Aircraft A310/H-SDFGHIM1RTUWXY/LB1

Departure

Time N/A
Airport Sydney Kingsford Smith International Airport (YSSY)

Arrival

Time 2026-05-04 11:05
Airport Melbourne Airport (YMML)
Time Latitude Longitude Altitude Speed Heading
2026-05-04 10:23 -36.07687 148.19614 36090 ft 443 kts 243°
2026-05-04 10:25 -36.21717 147.94461 36075 ft 446 kts 243°
2026-05-04 10:25 -36.25242 147.88144 36077 ft 446 kts 243°
2026-05-04 10:26 -36.28754 147.81800 36087 ft 446 kts 243°
2026-05-04 10:26 -36.32283 147.75462 36070 ft 447 kts 243°
2026-05-04 10:27 -36.35801 147.69098 36067 ft 448 kts 243°
2026-05-04 10:27 -36.39318 147.62719 36058 ft 448 kts 243°
2026-05-04 10:28 -36.42833 147.56334 36061 ft 448 kts 243°
2026-05-04 10:28 -36.46403 147.49959 36062 ft 453 kts 239°
2026-05-04 10:29 -36.50359 147.43848 36063 ft 452 kts 241°
2026-05-04 10:29 -36.53875 147.37418 36060 ft 448 kts 245°
2026-05-04 10:30 -36.57249 147.30897 36051 ft 449 kts 245°
2026-05-04 10:30 -36.60675 147.24454 36050 ft 450 kts 244°
2026-05-04 10:31 -36.64124 147.17897 36049 ft 450 kts 245°
2026-05-04 10:32 -36.76277 146.95098 36050 ft 454 kts 244°
2026-05-04 10:33 -36.79822 146.88570 36034 ft 455 kts 245°
2026-05-04 10:33 -36.83353 146.82022 36012 ft 456 kts 245°
2026-05-04 10:34 -36.86895 146.75455 36021 ft 457 kts 245°
2026-05-04 10:34 -36.90443 146.68867 36032 ft 458 kts 245°
2026-05-04 10:35 -36.94020 146.62257 36032 ft 459 kts 245°
2026-05-04 10:35 -36.97565 146.55635 36040 ft 458 kts 246°
2026-05-04 10:36 -37.01081 146.49045 36027 ft 459 kts 246°
2026-05-04 10:36 -37.02836 146.45739 35619 ft 456 kts 246°
2026-05-04 10:36 -37.04633 146.42369 34710 ft 462 kts 246°
2026-05-04 10:37 -37.06404 146.39059 33916 ft 466 kts 246°
2026-05-04 10:37 -37.08221 146.35679 32899 ft 470 kts 246°
2026-05-04 10:37 -37.10055 146.32248 31712 ft 476 kts 247°
2026-05-04 10:37 -37.11884 146.28750 30660 ft 484 kts 246°
2026-05-04 10:39 -37.23043 146.07110 24928 ft 485 kts 244°
2026-05-04 10:39 -37.24877 146.03586 24420 ft 479 kts 243°
2026-05-04 10:39 -37.26698 146.00115 23739 ft 474 kts 243°
2026-05-04 10:40 -37.28495 145.96679 23012 ft 468 kts 243°
2026-05-04 10:40 -37.30269 145.93290 22414 ft 461 kts 243°
2026-05-04 10:40 -37.32032 145.89936 21843 ft 457 kts 243°
2026-05-04 10:40 -37.33782 145.86636 21158 ft 451 kts 243°
2026-05-04 10:41 -37.35494 145.83374 20679 ft 439 kts 244°
2026-05-04 10:41 -37.37223 145.80321 20685 ft 425 kts 235°
2026-05-04 10:41 -37.39486 145.77981 20678 ft 421 kts 217°
2026-05-04 10:41 -37.42179 145.76632 20669 ft 416 kts 197°
2026-05-04 10:42 -37.45030 145.76389 20654 ft 408 kts 177°
2026-05-04 10:42 -37.47763 145.77128 20550 ft 398 kts 165°
2026-05-04 10:42 -37.50394 145.78186 20119 ft 396 kts 163°
2026-05-04 10:42 -37.52989 145.79302 19711 ft 393 kts 162°
2026-05-04 10:43 -37.55564 145.80430 19306 ft 391 kts 162°
2026-05-04 10:44 -37.73889 145.83976 15763 ft 332 kts 228°
2026-05-04 10:45 -37.75391 145.81888 15351 ft 314 kts 246°
2026-05-04 10:45 -37.76292 145.79459 14907 ft 299 kts 262°
2026-05-04 10:45 -37.76620 145.76937 14469 ft 287 kts 276°
2026-05-04 10:45 -37.76433 145.74473 14019 ft 278 kts 290°
2026-05-04 10:46 -37.75782 145.72216 13571 ft 269 kts 306°
2026-05-04 10:46 -37.74624 145.70413 13132 ft 263 kts 317°
2026-05-04 10:46 -37.73312 145.68817 12799 ft 258 kts 319°
2026-05-04 10:46 -37.72027 145.67244 12440 ft 256 kts 317°
2026-05-04 10:47 -37.70777 145.65644 11984 ft 256 kts 317°
2026-05-04 10:47 -37.69545 145.64020 11596 ft 255 kts 316°
2026-05-04 10:47 -37.68310 145.62384 11030 ft 258 kts 316°
2026-05-04 10:47 -37.67095 145.60770 10788 ft 251 kts 316°
2026-05-04 10:49 -37.58866 145.49793 8996 ft 247 kts 316°
2026-05-04 10:49 -37.57688 145.48216 8988 ft 247 kts 314°
2026-05-04 10:50 -37.56888 145.46301 8997 ft 256 kts 284°
2026-05-04 10:51 -37.67348 145.35843 7117 ft 295 kts 212°
2026-05-04 10:52 -37.69077 145.34575 6629 ft 279 kts 226°
2026-05-04 10:52 -37.70449 145.32929 6206 ft 265 kts 231°
2026-05-04 10:52 -37.71698 145.31285 5828 ft 254 kts 232°
2026-05-04 10:54 -37.79525 145.20821 3972 ft 220 kts 232°
2026-05-04 10:54 -37.80582 145.19409 3611 ft 221 kts 232°
2026-05-04 10:56 -37.87694 145.10059 2989 ft 210 kts 232°
2026-05-04 10:56 -37.88653 145.08683 2983 ft 204 kts 247°
2026-05-04 10:56 -37.88998 145.07027 2988 ft 194 kts 270°
2026-05-04 10:57 -37.89064 145.05304 2949 ft 195 kts 272°
2026-05-04 10:57 -37.89119 145.03592 2950 ft 196 kts 272°
2026-05-04 10:57 -37.89178 145.01895 2940 ft 186 kts 272°
2026-05-04 10:57 -37.89244 145.00310 2947 ft 179 kts 272°
2026-05-04 10:58 -37.89306 144.98723 2960 ft 180 kts 272°
2026-05-04 10:58 -37.89369 144.97139 2954 ft 180 kts 272°
2026-05-04 10:58 -37.89429 144.95560 2959 ft 180 kts 272°
2026-05-04 10:58 -37.89488 144.93982 2956 ft 180 kts 272°
2026-05-04 10:59 -37.89428 144.92424 2953 ft 173 kts 294°
2026-05-04 10:59 -37.88886 144.91070 2971 ft 175 kts 302°
2026-05-04 10:59 -37.88280 144.89748 2935 ft 174 kts 304°
2026-05-04 10:59 -37.87496 144.88547 2577 ft 179 kts 320°
2026-05-04 11:00 -37.86433 144.87764 2309 ft 172 kts 338°
2026-05-04 11:01 -37.78784 144.86408 2417 ft 147 kts 343°
2026-05-04 11:02 -37.77751 144.86236 1846 ft 163 kts 360°
2026-05-04 11:02 -37.76706 144.86140 1688 ft 135 kts 346°
2026-05-04 11:05 -37.66823 144.83921 396 ft 0 kts 22°
2026-05-04 11:08 -37.66689 144.84439 403 ft 4 kts 130°
2026-05-04 11:10 -37.66770 144.84455 399 ft 0 kts 172°